FW8085 Weather Reports


time (UTC)temp
C
wind
direction
speed
KPH
gust
KPH
rain 1hr
cm
rain 24hr
cm
rain mn
cm
humidity
%
barometer
mb
20260506174600 10 245 0.0 4.8 0.00 1.02 0.71 91 1010.3
20260506173028 10 283 0.0 3.2 0.00 1.02 0.71 90 1010.2
20260506171555 10 302 1.6 8.0 0.00 1.02 0.71 89 1010.0
20260506170027 11 265 1.6 6.4 0.00 1.02 0.71 89 1009.9
20260506164620 11 259 1.6 6.4 0.00 1.04 0.71 88 1009.8
20260506163022 11 306 1.6 9.7 0.00 1.04 0.71 88 1009.7
20260506161512 11 291 4.8 11.3 0.00 1.04 0.71 90 1009.8
20260506160007 11 269 3.2 8.0 0.00 1.04 0.71 91 1009.8
20260506154542 11 277 0.0 6.4 0.00 1.04 0.71 93 1009.8
20260506153030 11 248 1.6 6.4 0.00 1.04 0.71 91 1009.9
20260506151517 11 257 3.2 6.4 0.00 1.04 0.71 91 1009.8
20260506150010 11 239 3.2 9.7 0.00 1.04 0.71 90 1009.9
20260506144545 11 319 0.0 8.0 0.00 1.04 0.71 90 1009.8
20260506143013 11 277 0.0 6.4 0.00 1.04 0.71 92 1009.8
20260506141544 11 279 0.0 6.4 0.00 1.04 0.71 93 1009.8
20260506140010 11 355 3.2 6.4 0.00 1.04 0.71 94 1009.8
20260506134537 11 262 1.6 11.3 0.00 1.04 0.71 96 1009.8
20260506133007 10 306 4.8 11.3 0.00 1.04 0.71 97 1009.8
20260506131544 10 247 1.6 11.3 0.00 1.04 0.71 98 1009.8
20260506130009 10 338 1.6 11.3 0.00 1.04 0.71 98 1009.6
20260506124557 10 315 4.8 16.1 0.00 1.04 0.71 98 1009.6
20260506123024 9 321 1.6 20.9 0.00 1.04 0.71 98 1009.5
20260506121601 10 9 9.7 16.1 0.00 1.04 0.71 98 1009.3
20260506121503 10 5 11.3 16.1 0.00 1.04 0.71 99 1009.3
20260506120050 10 24 11.3 20.9 0.00 1.04 0.71 99 1009.3
20260506114513 9 350 11.3 19.3 0.00 1.04 0.71 98 1009.2
20260506113038 9 5 12.9 22.5 0.03 1.04 0.71 99 1009.1
20260506111512 9 5 14.5 22.5 0.03 1.04 0.71 99 1009.0
20260506110052 9 11 11.3 24.1 0.03 1.04 0.71 99 1009.1
20260506104536 9 355 11.3 16.1 0.03 1.09 0.71 99 1009.0
20260506103057 8 344 4.8 14.5 0.03 1.07 0.71 98 1009.1
20260506101531 8 360 6.4 9.7 0.05 1.07 0.71 98 1009.2
20260506100007 8 309 0.0 9.7 0.05 1.07 0.71 99 1009.0
20260506094555 8 313 3.2 8.0 0.05 1.07 0.71 98 1008.9
20260506093021 8 36 3.2 16.1 0.05 1.04 0.71 99 1008.9
20260506091554 8 273 0.0 9.7 0.05 1.02 0.69 99 1008.8
20260506090029 7 21 1.6 11.3 0.05 1.02 0.69 98 1008.7
20260506084506 7 355 1.6 9.7 0.05 0.99 0.66 98 1008.6
20260506083040 7 259 3.2 9.7 0.05 0.99 0.64 98 1008.4
20260506081515 7 42 1.6 8.0 0.05 0.99 0.64 98 1008.3
20260506073055 7 274 3.2 12.9 0.03 0.94 0.61 98 1008.0
20260506071530 7 128 1.6 11.3 0.05 0.94 0.61 98 1007.8
20260506061504 7 284 1.6 11.3 0.05 0.89 0.56 98 1007.5
20260506050103 7 305 3.2 11.3 0.10 0.84 0.48 98 1007.4
20260506044536 7 9 8.0 20.9 0.08 0.81 0.46 98 1007.5
20260506043008 7 350 4.8 14.5 0.05 0.79 0.43 98 1007.3
20260506041548 7 355 8.0 16.1 0.05 0.76 0.41 98 1007.3
20260506040017 7 23 8.0 16.1 0.05 0.71 0.38 98 1007.2
20260506034557 7 22 6.4 17.7 0.05 0.71 0.38 98 1007.2
20260506033033 7 288 11.3 20.9 0.08 0.71 0.38 98 1007.2
20260506031511 7 13 11.3 20.9 0.08 0.71 0.36 98 1007.2
20260506030040 7 355 12.9 19.3 0.10 0.71 0.33 98 1007.3
20260506024520 7 348 11.3 20.9 0.10 0.69 0.33 98 1007.3
20260506023103 8 346 12.9 19.3 0.13 0.66 0.30 98 1007.3
20260506021536 8 17 9.7 20.9 0.13 0.64 0.28 98 1007.3
20260506020054 8 349 9.7 17.7 0.10 0.61 0.23 98 1007.3
20260506014532 8 355 11.3 24.1 0.10 0.58 0.23 98 1007.3
20260506013013 8 355 9.7 14.5 0.08 0.53 0.18 98 1007.3
20260506011556 8 5 9.7 19.3 0.08 0.51 0.15 98 1007.5
20260506010016 8 360 11.3 19.3 0.05 0.51 0.15 98 1007.5
20260506004601 8 5 11.3 19.3 0.05 0.48 0.13 98 1007.5
20260506003038 8 10 9.7 14.5 0.05 0.46 0.10 98 1007.6
20260506001512 8 14 9.7 19.3 0.05 0.43 0.08 98 1007.7
20260506000049 8 348 11.3 19.3 0.08 0.43 0.08 98 1007.8
20260505234527 8 17 12.9 17.7 0.08 0.43 0.05 98 1007.9
20260505233001 8 11 9.7 22.5 0.05 0.41 0.05 98 1007.9
20260505231549 8 355 17.7 25.7 0.05 0.38 0.03 98 1007.9
20260505230025 8 13 9.7 16.1 0.05 0.36 0.00 98 1008.1
20260505224514 8 5 12.9 29.0 0.05 0.33 0.33 98 1008.1
20260505223041 8 360 12.9 20.9 0.05 0.33 0.33 98 1008.0
20260505221527 8 13 12.9 19.3 0.03 0.33 0.33 98 1008.0
20260505220025 8 24 12.9 19.3 0.03 0.30 0.30 98 1008.1
20260505214507 9 30 12.9 20.9 0.03 0.30 0.30 98 1008.2
20260505213059 9 53 11.3 25.7 0.03 0.30 0.30 98 1008.2
20260505211554 9 17 14.5 22.5 0.05 0.30 0.30 98 1008.3
20260505210030 9 12 9.7 16.1 0.03 0.28 0.28 98 1008.3
20260505204526 9 14 9.7 17.7 0.03 0.28 0.28 98 1008.2
20260505203011 9 19 11.3 17.7 0.05 0.28 0.28 98 1008.3
20260505201604 9 9 12.9 24.1 0.05 0.25 0.25 98 1008.3
20260505200048 9 24 12.9 19.3 0.05 0.25 0.25 98 1008.1
20260505194529 9 15 12.9 20.9 0.05 0.25 0.25 98 1008.0
20260505193024 9 11 11.3 19.3 0.05 0.23 0.23 98 1008.0
20260505191601 9 43 12.9 20.9 0.05 0.23 0.23 98 1007.9
20260505190040 10 22 11.3 16.1 0.08 0.23 0.23 98 1007.8
20260505184535 10 53 14.5 20.9 0.10 0.23 0.23 98 1007.8
20260505183020 10 14 11.3 19.3 0.08 0.20 0.20 98 1007.8
20260505181600 10 22 12.9 22.5 0.08 0.18 0.18 98 1007.8
20260505180051 10 23 12.9 19.3 0.05 0.15 0.15 98 1007.8